Albany, GA

8:43 AM EDT on April 24, 2018 (GMT -0400)
Southwest Georgia Regional

Weather History for KABY - March, 2013

Change the Weather History Date:

Tuesday, March 5, 2013

  Actual Average Record
Temperature  
Mean Temperature 61 °F 57 °F  
Max Temperature 75 °F 69 °F 86 °F (1945)
Min Temperature 46 °F 44 °F 20 °F (1980)
Degree Days  
Heating Degree Days 4 9  
Month to date heating degree days 98 48  
Since 1 July heating degree days 1370 1608  
Cooling Degree Days 0 1  
Month to date cooling degree days 0 5  
Year to date cooling degree days 27 14  
Growing Degree Days 10 (Base 50)    
Moisture  
Dew Point 48 °F    
Average Humidity 64    
Maximum Humidity 83    
Minimum Humidity 44    
Precipitation  
Precipitation T in 0.14 in 0.40 in (2015)
Month to date precipitation T 0.67  
Year to date precipitation 10.09 9.65  
Sea Level Pressure  
Sea Level Pressure 30.01 in    
Wind  
Wind Speed 11 mph (SW)    
Max Wind Speed 28 mph    
Max Gust Speed 39 mph    
Visibility 10 miles    
Events Rain    
T = Trace of Precipitation, MM = Missing Value Source: NWS Daily Summary

Daily Weather History Graph

Daily Weather History Graph

Search for Another Location

Airport or City:

Astronomy

Mar. 05, 2013 Rise Set
Actual Time 6:58 AM EST 6:37 PM EST
Civil Twilight 6:34 AM EST 7:02 PM EST
Nautical Twilight 6:06 AM EST 7:30 PM EST
Astronomical Twilight 5:38 AM EST 7:58 PM EST
Moon 1:53 AM EST (3/5) 12:32 PM EST (3/5)
Length of Visible Light 12h 27m
Length of Day
11h 39m
Last Quarter, 41% of the Moon is Illuminated
Mar 5
Last Quarter
Mar 11
New
Mar 19
First Quarter
Mar 27
Full
Apr 3
Last Quarter

Hourly Weather History & Observations

Time (EST) Temp. Dew Point Humidity Pressure Visibility Wind Dir Wind Speed Gust Speed Precip Events Conditions
12:53 AM 50.0 °F 35.1 °F 57% 30.12 in 10.0 mi SSW 5.8 mph - N/A   Clear
2:53 AM 48.9 °F 39.0 °F 69% 30.10 in 10.0 mi Calm Calm - N/A   Clear
3:53 AM 48.9 °F 39.9 °F 71% 30.11 in 10.0 mi Calm Calm - N/A   Overcast
4:53 AM 50.0 °F 41.0 °F 71% 30.12 in 10.0 mi Calm Calm - N/A   Overcast
5:53 AM 50.0 °F 41.0 °F 71% 30.12 in 10.0 mi Calm Calm - N/A   Overcast
6:53 AM 50.0 °F 43.0 °F 77% 30.11 in 10.0 mi SSE 5.8 mph - N/A   Overcast
8:53 AM 55.0 °F 48.9 °F 80% 30.11 in 10.0 mi South 6.9 mph - N/A   Overcast
9:43 AM 57.2 °F 51.8 °F 82% 30.11 in 8.0 mi SSW 6.9 mph - 0.00 in Rain Light Rain
9:53 AM 57.0 °F 52.0 °F 83% 30.10 in 10.0 mi SSW 9.2 mph - 0.00 in   Overcast
10:53 AM 61.0 °F 52.0 °F 72% 30.07 in 10.0 mi South 10.4 mph - N/A   Mostly Cloudy
11:00 AM 62.6 °F 53.6 °F 72% 30.08 in 10.0 mi SW 9.2 mph - N/A   Mostly Cloudy
11:53 AM 64.0 °F 53.1 °F 67% 30.07 in 10.0 mi SSW 13.8 mph - N/A   Mostly Cloudy
12:53 PM 66.9 °F 55.0 °F 66% 30.01 in 10.0 mi SSW 19.6 mph 26.5 mph N/A   Overcast
1:53 PM 69.1 °F 55.9 °F 63% 29.98 in 10.0 mi SW 12.7 mph 21.9 mph N/A   Overcast
2:53 PM 71.1 °F 57.0 °F 61% 29.92 in 10.0 mi SSW 16.1 mph 24.2 mph N/A   Overcast
3:26 PM 71.6 °F 57.2 °F 60% 29.91 in 10.0 mi WSW 11.5 mph 26.5 mph 0.00 in Rain Light Rain
3:53 PM 73.9 °F 57.9 °F 57% 29.89 in 10.0 mi SSW 15.0 mph - 0.00 in   Mostly Cloudy
4:53 PM 73.0 °F 50.0 °F 44% 29.87 in 7.0 mi SW 16.1 mph 24.2 mph N/A   Overcast
5:53 PM 72.0 °F 52.0 °F 49% 29.84 in 10.0 mi SW 21.9 mph 34.5 mph N/A   Scattered Clouds
6:35 PM 69.8 °F 53.6 °F 56% 29.85 in 7.0 mi SW 21.9 mph 33.4 mph N/A   Mostly Cloudy
6:53 PM 69.1 °F 54.0 °F 58% 29.87 in 7.0 mi WSW 18.4 mph 32.2 mph N/A   Overcast
7:53 PM 64.0 °F 57.9 °F 80% 29.91 in 8.0 mi West 12.7 mph 23.0 mph 0.00 in Rain Light Rain
8:53 PM 59.0 °F 52.0 °F 78% 29.94 in 10.0 mi WNW 13.8 mph 20.7 mph 0.00 in   Scattered Clouds
9:53 PM 55.9 °F 46.9 °F 72% 29.98 in 10.0 mi WNW 17.3 mph 25.3 mph N/A   Scattered Clouds
10:02 PM 55.4 °F 44.6 °F 67% 29.99 in 10.0 mi WNW 15.0 mph 23.0 mph N/A   Mostly Cloudy
10:12 PM 53.6 °F 42.8 °F 67% 29.99 in 10.0 mi WNW 18.4 mph 24.2 mph N/A   Scattered Clouds
10:53 PM 50.0 °F 37.9 °F 63% 30.02 in 10.0 mi WNW 12.7 mph 26.5 mph N/A   Clear
11:53 PM 46.9 °F 32.0 °F 56% 30.05 in 10.0 mi WNW 18.4 mph 28.8 mph N/A   Clear